Change the Weather History Date:

Tuesday, October 30, 2012

  Actual Average Record
Temperature  
Mean Temperature 48 °F -  
Max Temperature 61 °F 71 °F 83 °F (1971)
Min Temperature 36 °F 49 °F 33 °F (1993)
Degree Days  
Heating Degree Days 16    
Moisture  
Dew Point 30 °F    
Average Humidity 56    
Maximum Humidity 79    
Minimum Humidity 24    
Precipitation  
Precipitation 0.00 in - - ()
Sea Level Pressure  
Sea Level Pressure 30.01 in    
Wind  
Wind Speed 4 mph (NW)    
Max Wind Speed 9 mph    
Max Gust Speed -    
Visibility 10 miles    
Events      
Averages and records for this station are not official NWS values.
T = Trace of Precipitation, MM = Missing Value Source: NWS Daily Summary

Daily Weather History Graph

Daily Weather History Graph

Search for Another Location

Airport or City:

Trip Planner

Search our weather history database for the weather conditions in past years. The results will help you decide how hot, cold, wet, or windy it might be!

Date:

Astronomy

Oct. 30, 2012 Rise Set
Actual Time 7:20 AM CDT 6:07 PM CDT
Civil Twilight 6:54 AM CDT 6:34 PM CDT
Nautical Twilight 6:24 AM CDT 7:03 PM CDT
Astronomical Twilight 5:55 AM CDT 7:33 PM CDT
Moon 6:40 PM CDT (10/30) 8:04 AM CDT (10/30)
Length of Visible Light 11h 39m
Length of Day
10h 47m
Full, 99% of the Moon is Illuminated
Oct 30
Full
Nov 6
Last Quarter
Nov 13
New
Nov 20
First Quarter
Nov 28
Full

Hourly Weather History & Observations

Time (CDT) Temp. Windchill Dew Point Humidity Pressure Visibility Wind Dir Wind Speed Gust Speed Precip Events Conditions
12:53 AM 39.0 °F 34.8 °F 28.9 °F 67% 30.08 in 10.0 mi NW 5.8 mph - N/A   Clear
1:53 AM 37.0 °F 33.3 °F 30.0 °F 76% 30.07 in 10.0 mi NW 4.6 mph - N/A   Clear
2:53 AM 37.0 °F 34.5 °F 28.9 °F 73% 30.06 in 10.0 mi NW 3.5 mph - N/A   Clear
3:53 AM 37.9 °F 35.5 °F 28.9 °F 70% 30.05 in 10.0 mi West 3.5 mph - N/A   Clear
4:53 AM 37.9 °F 35.5 °F 28.0 °F 68% 30.05 in 10.0 mi WNW 3.5 mph - N/A   Clear
5:53 AM 37.0 °F - 27.0 °F 67% 30.05 in 10.0 mi Calm Calm - N/A   Clear
6:53 AM 36.0 °F 33.3 °F 28.0 °F 73% 30.05 in 10.0 mi WNW 3.5 mph - N/A   Clear
7:53 AM 36.0 °F - 28.0 °F 73% 30.06 in 10.0 mi Calm Calm - N/A   Clear
8:53 AM 41.0 °F 39.0 °F 30.0 °F 65% 30.07 in 10.0 mi NW 3.5 mph - N/A   Clear
9:53 AM 46.9 °F - 30.0 °F 52% 30.07 in 10.0 mi Variable 5.8 mph - N/A   Clear
10:53 AM 51.1 °F - 27.0 °F 39% 30.07 in 10.0 mi North 9.2 mph - N/A   Clear
11:53 AM 54.0 °F - 27.0 °F 35% 30.05 in 10.0 mi North 8.1 mph - N/A   Clear
12:53 PM 57.0 °F - 25.0 °F 29% 30.01 in 10.0 mi WNW 4.6 mph - N/A   Clear
1:53 PM 57.9 °F - 24.1 °F 27% 29.97 in 10.0 mi NNW 9.2 mph - N/A   Clear
2:53 PM 60.1 °F - 23.0 °F 24% 29.95 in 10.0 mi Variable 5.8 mph - N/A   Clear
3:53 PM 61.0 °F - 28.0 °F 29% 29.94 in 10.0 mi NW 9.2 mph - N/A   Clear
4:53 PM 57.9 °F - 28.9 °F 33% 29.93 in 10.0 mi West 6.9 mph - N/A   Clear
6:53 PM 54.0 °F - 32.0 °F 43% 29.93 in 10.0 mi Calm Calm - N/A   Clear
7:53 PM 48.0 °F - 34.0 °F 58% 29.93 in 10.0 mi Calm Calm - N/A   Clear
8:53 PM 45.0 °F - 35.1 °F 68% 29.94 in 10.0 mi Calm Calm - N/A   Clear
9:53 PM 46.9 °F - 36.0 °F 66% 29.95 in 10.0 mi Calm Calm - N/A   Scattered Clouds
10:53 PM 44.1 °F - 37.9 °F 79% 29.95 in 10.0 mi Calm Calm - N/A   Mostly Cloudy
11:53 PM 46.0 °F - 39.9 °F 79% 29.95 in 10.0 mi Calm Calm - N/A   Overcast